Find Starlink 4523

NORAD ID: 53389 Int'l Des: 2022-097 Owner: SPXS Country: US Constellation: starlink operational
LEOCIRCULAR

現在のビュー

3D地球を読み込み中...

About Starlink 4523

Starlink 4523 (NORAD 53389) is a starlink constellation satellite (v1.5) launched Aug 10, 2022 by SPXS of US. It operates in LEO, CIRCULAR orbit with a mass of 297.00 kg.

Starlink 4523について

説明を読み込み中...

次回通過

Passes for default location (London). Set your location on the main map for personalized predictions.

高度履歴

Loading altitude history...

軌道要素

1 53389U 22097B 26165.95649202 -.00000235 00000-0 33639-5 0 9995
2 53389 53.1607 47.3897 0001593 92.2538 267.8636 15.08830070213351
Epoch: Jun 14, 2026 • Age: 14 hours

現在のステータス

高度 559.4 km
速度 7.58 km/s
衛星直下点 -53.27°S, 145.1°W
打ち上げ日 Aug 10, 2022
運用期間 3.8 years
タイプ internet

技術仕様

分類 Payload
質量 297.00 kg
乾燥質量 275.00 kg
総質量 297.00 kg
長さ 0.20 m
直径 2.80 m
スパン 9.00 m
形状 Box + pan
製造者 SPXS
バスタイプ Starlink
フェーズステータス In Orbit
所有者/国 SPXS/US

Most Searched